Flag for Germany Weather past 2 weeks in Rheinberg, North Rhine-Westphalia, Germany

Now
46 °F

Overcast.


Feels Like: 42 °F
Forecast: 38 / 48 °F
Wind: 7 mph from West

Location: Duesseldorf

Current Time: Apr 1, 2015 at 8:44:54 PM

Latest Report: Apr 1, 2015 at 8:00 PM


Visibility: 25 mi

Pressure: 30.08 "Hg

Humidity: 54%

Dew point: 30 °F

Location of RheinbergLocation

Historic Weather in Rheinberg — Graph

°F

Rheinberg temperature yesterday

Maximum temperature yesterday: 52 °F (at 10:00 AM)
Minimum temperature yesterday: 40 °F (at 10:00 PM)
Average temperature yesterday: 48 °F

Past Weeks' High & Low Weather Summary

 TemperatureHumidityPressure
High62 °F (Mar 18, 3:00 PM)99% (Mar 20, 1:00 AM)30.39 "Hg (Mar 20, 1:00 AM)
Low31 °F (Mar 20, 3:00 AM)41% (Mar 31, 5:00 PM)29.26 "Hg (Mar 29, 8:00 PM)
Average44 °F79%29.96 "Hg
* Reported Mar 17 7:00 PM — Apr 1 8:00 PM, Rheinberg, Weather by CustomWeather, © 2015

Note: Actual official high and low records may vary slightly from our data, if they occured in-between our weather recording intervals... More about our weather records

Advertising

Rheinberg weather history for previous 24 hours

 ConditionsComfort  
Time TempWeatherWind HumidityBarometerVisibility
8:00 PM
Wed, Apr 1
46 °FOvercast.7 mph54%30.08 "Hg25 mi
7:00 PM47 °FOvercast.10 mph54%30.08 "Hg28 mi
6:00 PM46 °FPartly sunny.13 mph60%30.08 "Hg22 mi
4:00 PM47 °FPartly sunny.15 mph55%30.07 "Hg19 mi
3:00 PM38 °FSprinkles. Low clouds.15 mph85%30.09 "Hg5 mi
2:00 PM45 °FPartly sunny.12 mph69%30.06 "Hg19 mi
1:00 PM42 °FPartly sunny.7 mph79%30.07 "Hg22 mi
12:00 PM44 °FPartly sunny.9 mph73%30.06 "Hg19 mi
11:00 AM42 °FOvercast.9 mph76%30.05 "Hg16 mi
10:00 AM41 °FPartly sunny.9 mph76%30.03 "Hg16 mi
9:00 AM39 °FPartly sunny.8 mph81%30.01 "Hg14 mi
8:00 AM39 °FOvercast.6 mph80%29.98 "Hg16 mi
7:00 AM37 °FSleet. Overcast.7 mph83%29.95 "Hg7 mi
6:00 AM41 °FPassing clouds.10 mph65%29.91 "Hg31 mi
4:00 AM42 °FOvercast.13 mph61%29.88 "Hg31 mi
3:00 AM42 °FPassing clouds.9 mph63%29.87 "Hg31 mi
2:00 AM42 °FSprinkles. Passing clouds.12 mph73%29.86 "Hg31 mi
1:00 AM41 °FPassing clouds.8 mph71%29.84 "Hg37 mi
12:00 AM40 °FPassing clouds.8 mph74%29.83 "Hg37 mi
10:00 PM
Tue, Mar 31
40 °FThunderstorms. Passing clouds.5 mph82%29.80 "Hg25 mi
9:00 PM43 °FThunderstorms. Overcast.8 mph76%29.80 "Hg19 mi
8:00 PM49 °FThunderstorms. Overcast.7 mph56%29.74 "Hg16 mi
Weather by CustomWeather, © 2015

See weather overviewHow to use our weather pages